AI4U Weather Reports


Display with metric or nautical units.
time (UTC)temp
F
wind
direction
speed
MPH
gust
MPH
rain 1hr
in
rain 24hr
in
rain mn
in
humidity
%
barometer
mb
20200228003009 38 0 0.0 0.0 0.00 0.00 0.00 61 1021.7
20200228002506 39 0 0.0 0.0 0.00 0.00 0.00 60 1021.7
20200228002006 39 0 0.0 0.0 0.00 0.00 0.00 59 1021.6
20200228001510 40 0 0.0 0.0 0.00 0.00 0.00 58 1021.7
20200228001006 40 0 0.0 0.0 0.00 0.00 0.00 57 1021.7
20200228000505 41 0 0.0 0.0 0.00 0.00 0.00 57 1021.7
20200228000010 41 0 0.0 1.0 0.00 0.00 0.00 55 1021.8
20200227235506 42 0 0.0 1.0 0.00 0.00 0.00 54 1021.8
20200227235005 42 0 0.0 3.0 0.00 0.00 0.00 54 1021.8
20200227234510 42 0 0.0 3.0 0.00 0.00 0.00 53 1021.8
20200227234006 42 0 0.0 3.0 0.00 0.00 0.00 52 1021.7
20200227233506 43 0 0.0 3.0 0.00 0.00 0.00 51 1021.8
20200227233010 43 222 0.0 3.0 0.00 0.00 0.00 51 1021.7
20200227232505 43 257 1.0 3.0 0.00 0.00 0.00 50 1021.7
20200227232005 44 252 1.0 5.0 0.00 0.00 0.00 50 1021.8
20200227231510 44 253 1.0 5.0 0.00 0.00 0.00 49 1021.7
20200227231005 44 344 1.0 3.0 0.00 0.00 0.00 48 1021.8
20200227230505 44 333 1.0 7.0 0.00 0.00 0.00 46 1021.8
20200227230010 45 332 1.0 7.0 0.00 0.00 0.00 45 1021.6
20200227225506 45 346 1.0 6.0 0.00 0.00 0.00 45 1021.7
20200227225005 46 353 1.0 6.0 0.00 0.00 0.00 44 1021.7
20200227224510 47 350 1.0 5.0 0.00 0.00 0.00 43 1021.8
20200227224006 48 342 1.0 7.0 0.00 0.00 0.00 43 1021.8
20200227223506 47 325 2.0 8.0 0.00 0.00 0.00 43 1021.7
20200227223010 47 274 1.0 8.0 0.00 0.00 0.00 42 1021.7
20200227222506 48 248 1.0 6.0 0.00 0.00 0.00 41 1021.8
20200227222005 48 237 1.0 5.0 0.00 0.00 0.00 43 1021.7
20200227221510 48 308 1.0 7.0 0.00 0.00 0.00 43 1021.7
20200227221006 48 327 1.0 7.0 0.00 0.00 0.00 42 1021.8
20200227220505 48 224 1.0 5.0 0.00 0.00 0.00 43 1021.7
20200227220010 48 223 1.0 6.0 0.00 0.00 0.00 43 1021.8
20200227215505 48 220 1.0 6.0 0.00 0.00 0.00 45 1021.6
20200227215005 47 335 1.0 5.0 0.00 0.00 0.00 45 1021.7
20200227214510 47 355 1.0 5.0 0.00 0.00 0.00 44 1021.7
20200227214005 47 357 1.0 7.0 0.00 0.00 0.00 45 1021.7
20200227213505 47 340 1.0 9.0 0.00 0.00 0.00 43 1021.7
20200227213010 48 232 1.0 9.0 0.00 0.00 0.00 44 1021.8
20200227212506 47 277 1.0 5.0 0.00 0.00 0.00 44 1021.8
20200227212005 47 303 1.0 8.0 0.00 0.00 0.00 45 1021.9
20200227211509 48 259 1.0 8.0 0.00 0.00 0.00 44 1022.0
20200227211006 48 243 1.0 9.0 0.00 0.00 0.00 45 1022.0
20200227210505 48 233 2.0 9.0 0.00 0.00 0.00 45 1022.1
20200227210009 47 247 2.0 8.0 0.00 0.00 0.00 48 1022.1
20200227205506 48 236 1.0 7.0 0.00 0.00 0.00 45 1022.0
20200227205005 48 213 2.0 6.0 0.00 0.00 0.00 43 1022.0
20200227204509 48 209 2.0 6.0 0.00 0.00 0.00 46 1022.1
20200227204007 48 196 3.0 9.0 0.00 0.00 0.00 48 1022.1
20200227203505 47 207 2.0 9.0 0.00 0.00 0.00 47 1022.1
20200227203009 47 228 1.0 9.0 0.00 0.00 0.00 47 1022.2
20200227202505 48 225 1.0 5.0 0.00 0.00 0.00 46 1022.2
20200227202005 48 208 1.0 6.0 0.00 0.00 0.00 46 1022.2
20200227201509 48 233 1.0 6.0 0.00 0.00 0.00 50 1022.3
20200227201005 46 321 1.0 5.0 0.00 0.00 0.00 47 1022.4
20200227200505 47 229 1.0 7.0 0.00 0.00 0.00 47 1022.4
20200227200009 46 207 1.0 7.0 0.00 0.00 0.00 50 1022.5
20200227195505 45 347 1.0 5.0 0.00 0.00 0.00 50 1022.6
20200227195005 45 333 1.0 6.0 0.00 0.00 0.00 48 1022.6
20200227194509 45 351 2.0 11.0 0.00 0.00 0.00 51 1022.6
20200227194006 44 358 2.0 11.0 0.00 0.00 0.00 49 1022.7
20200227193504 44 4 1.0 10.0 0.00 0.00 0.00 49 1022.7
20200227193009 45 3 1.0 10.0 0.00 0.00 0.00 49 1022.7
20200227192505 46 218 1.0 5.0 0.00 0.00 0.00 51 1022.7
20200227192005 45 211 1.0 9.0 0.00 0.00 0.00 51 1022.8
20200227191509 44 241 1.0 9.0 0.00 0.00 0.00 50 1022.9
20200227191005 43 356 1.0 5.0 0.00 0.00 0.00 52 1022.9
20200227190505 44 342 1.0 5.0 0.00 0.00 0.00 50 1023.1
20200227190009 43 332 1.0 4.0 0.00 0.00 0.00 52 1023.2
20200227185505 44 228 1.0 8.0 0.00 0.00 0.00 50 1023.3
20200227185005 44 215 2.0 8.0 0.00 0.00 0.00 52 1023.3
20200227184509 43 214 1.0 10.0 0.00 0.00 0.00 54 1023.5
20200227184005 43 212 1.0 10.0 0.00 0.00 0.00 52 1023.7
20200227183504 42 229 1.0 3.0 0.00 0.00 0.00 55 1023.7
20200227183009 42 334 1.0 6.0 0.00 0.00 0.00 55 1023.7
20200227182505 42 315 1.0 7.0 0.00 0.00 0.00 54 1023.9
20200227182005 42 209 1.0 7.0 0.00 0.00 0.00 56 1023.9
20200227181509 41 227 1.0 5.0 0.00 0.00 0.00 56 1024.1
20200227181005 41 345 1.0 7.0 0.00 0.00 0.00 56 1024.2
20200227180505 41 315 1.0 8.0 0.00 0.00 0.00 55 1024.3
20200227180009 41 318 1.0 8.0 0.00 0.00 0.00 58 1024.3
20200227175505 41 257 1.0 6.0 0.00 0.00 0.00 56 1024.5
20200227175005 40 213 1.0 9.0 0.00 0.00 0.00 56 1024.6
20200227174509 40 240 1.0 9.0 0.00 0.00 0.00 58 1024.5
20200227174005 40 231 1.0 6.0 0.00 0.00 0.00 58 1024.7
20200227173505 39 252 1.0 6.0 0.00 0.00 0.00 61 1024.7
20200227173009 38 2 2.0 5.0 0.00 0.00 0.00 61 1024.8
20200227172504 38 7 2.0 9.0 0.00 0.00 0.00 62 1024.8
20200227172005 38 9 1.0 9.0 0.00 0.00 0.00 61 1024.9
20200227171509 38 8 1.0 7.0 0.00 0.00 0.00 63 1025.0
20200227171005 38 211 1.0 6.0 0.00 0.00 0.00 62 1025.1
20200227170505 38 220 1.0 6.0 0.00 0.00 0.00 62 1025.3
20200227170008 37 304 2.0 6.0 0.00 0.00 0.00 66 1025.5
20200227165505 36 8 2.0 8.0 0.00 0.00 0.00 65 1025.5
20200227165005 36 4 2.0 8.0 0.00 0.00 0.00 65 1025.6
20200227164509 36 5 2.0 7.0 0.00 0.00 0.00 65 1025.6
20200227164005 36 8 1.0 7.0 0.00 0.00 0.00 66 1025.6
20200227163504 36 347 1.0 5.0 0.00 0.00 0.00 65 1025.7
20200227163009 36 341 1.0 3.0 0.00 0.00 0.00 66 1025.7
20200227162505 36 357 1.0 4.0 0.00 0.00 0.00 65 1025.6
20200227162005 36 311 1.0 5.0 0.00 0.00 0.00 65 1025.5
20200227161508 36 245 1.0 6.0 0.00 0.00 0.00 66 1025.4
20200227161004 36 359 1.0 6.0 0.00 0.00 0.00 67 1025.4
20200227160504 36 3 1.0 6.0 0.00 0.00 0.00 66 1025.3
20200227160009 36 354 1.0 7.0 0.00 0.00 0.00 67 1025.3
20200227155505 35 358 1.0 7.0 0.00 0.00 0.00 67 1025.4
20200227155005 35 359 1.0 5.0 0.00 0.00 0.00 68 1025.3
20200227154508 34 1 1.0 5.0 0.00 0.01 0.00 66 1025.2
20200227154005 34 4 1.0 7.0 0.00 0.01 0.00 68 1025.2
20200227153505 34 358 1.0 7.0 0.00 0.01 0.00 69 1025.4
20200227153009 34 352 2.0 4.0 0.00 0.01 0.00 69 1025.3
20200227152504 34 358 1.0 5.0 0.00 0.01 0.00 69 1025.2
20200227152004 34 5 1.0 6.0 0.00 0.01 0.00 70 1025.3
20200227151508 34 11 1.0 6.0 0.00 0.01 0.00 70 1025.3
20200227151005 34 3 2.0 8.0 0.00 0.01 0.00 69 1025.3
20200227150504 34 4 1.0 8.0 0.00 0.01 0.00 71 1025.3
20200227150009 33 4 0.0 6.0 0.00 0.01 0.00 75 1025.4
20200227145505 33 0 0.0 3.0 0.00 0.01 0.00 79 1025.3
20200227145004 33 0 0.0 3.0 0.00 0.01 0.00 79 1025.2
20200227144508 33 0 0.0 2.0 0.00 0.01 0.00 80 1025.1
20200227144005 32 0 0.0 3.0 0.00 0.01 0.00 80 1024.9
20200227143504 33 0 0.0 3.0 0.00 0.01 0.00 80 1024.9
20200227143009 33 0 0.0 2.0 0.00 0.01 0.00 81 1024.9
20200227142504 33 0 0.0 3.0 0.00 0.01 0.00 80 1025.0
20200227142004 33 0 0.0 3.0 0.00 0.01 0.00 80 1024.8
20200227141508 33 0 0.0 3.0 0.00 0.01 0.00 80 1024.7
20200227141004 32 0 0.0 3.0 0.00 0.01 0.00 79 1024.6
20200227140504 32 0 0.0 2.0 0.00 0.01 0.00 82 1024.6
20200227140008 32 0 0.0 2.0 0.00 0.01 0.00 82 1024.5
20200227135504 32 0 0.0 4.0 0.00 0.01 0.00 83 1024.4
20200227135004 32 0 0.0 4.0 0.00 0.01 0.00 83 1024.5
20200227134508 32 0 0.0 3.0 0.00 0.01 0.00 83 1024.6
20200227134004 32 0 0.0 1.0 0.00 0.01 0.00 84 1024.4
20200227133504 32 0 0.0 2.0 0.00 0.01 0.00 84 1024.4
20200227133008 32 0 0.0 2.0 0.00 0.01 0.00 84 1024.3
20200227132504 32 0 0.0 2.0 0.00 0.01 0.00 84 1024.1
20200227132004 31 0 0.0 1.0 0.00 0.01 0.00 84 1024.1
20200227131508 31 0 0.0 1.0 0.00 0.01 0.00 84 1024.1
20200227131004 31 0 0.0 1.0 0.00 0.02 0.00 85 1023.9
20200227130504 31 0 0.0 1.0 0.00 0.02 0.00 85 1023.9
20200227130009 31 0 0.0 1.0 0.00 0.02 0.00 85 1023.9
20200227125504 30 0 0.0 1.0 0.00 0.02 0.00 85 1023.7
20200227125004 30 0 0.0 1.0 0.00 0.02 0.00 86 1023.7
20200227124508 30 0 0.0 1.0 0.00 0.02 0.00 86 1023.6
20200227124004 29 0 0.0 1.0 0.00 0.02 0.00 86 1023.5
20200227123504 29 0 0.0 1.0 0.00 0.02 0.00 86 1023.4
20200227123008 29 0 0.0 0.0 0.00 0.02 0.00 85 1023.3
20200227122504 30 0 0.0 0.0 0.00 0.02 0.00 84 1023.4
20200227122004 30 0 0.0 0.0 0.00 0.02 0.00 83 1023.3
20200227121508 30 0 0.0 0.0 0.00 0.02 0.00 83 1023.3
20200227121004 31 0 0.0 0.0 0.00 0.02 0.00 83 1023.2
20200227120504 31 0 0.0 0.0 0.00 0.02 0.00 82 1023.1
20200227120008 31 0 0.0 0.0 0.00 0.02 0.00 82 1023.1
20200227115503 31 0 0.0 1.0 0.00 0.02 0.00 82 1023.0
20200227115004 31 0 0.0 1.0 0.00 0.02 0.00 82 1023.0
20200227114508 31 0 0.0 3.0 0.00 0.02 0.00 82 1023.0
20200227114004 31 0 0.0 3.0 0.00 0.02 0.00 82 1022.9
20200227113504 31 0 0.0 3.0 0.00 0.02 0.00 82 1023.0
20200227113008 31 0 0.0 3.0 0.00 0.02 0.00 82 1023.0
20200227112503 31 0 0.0 3.0 0.00 0.02 0.00 82 1023.1
20200227112004 31 0 0.0 2.0 0.00 0.02 0.00 82 1022.9
20200227111508 31 0 0.0 2.0 0.00 0.02 0.00 82 1022.8
20200227111003 31 0 0.0 2.0 0.00 0.02 0.00 83 1022.7
20200227110503 31 0 0.0 1.0 0.00 0.02 0.00 83 1022.8
20200227110008 31 0 0.0 1.0 0.00 0.02 0.00 83 1022.8
20200227105503 31 0 0.0 1.0 0.00 0.02 0.00 83 1022.9
20200227105004 31 0 0.0 1.0 0.00 0.02 0.00 83 1022.9
20200227104508 31 0 0.0 3.0 0.00 0.02 0.00 83 1022.9
20200227104004 31 0 0.0 3.0 0.00 0.02 0.00 83 1022.8
20200227103504 30 0 0.0 1.0 0.00 0.02 0.00 82 1022.8
20200227103008 30 0 0.0 1.0 0.00 0.02 0.00 82 1022.7
20200227102504 30 0 0.0 1.0 0.00 0.02 0.00 83 1022.7
20200227102004 30 0 0.0 1.0 0.00 0.02 0.00 82 1022.7
20200227101508 30 0 0.0 1.0 0.00 0.02 0.00 83 1022.8
20200227101004 30 0 0.0 1.0 0.00 0.02 0.00 82 1022.6
20200227100503 30 0 0.0 1.0 0.00 0.02 0.00 83 1022.6
20200227100008 30 0 0.0 0.0 0.00 0.02 0.00 83 1022.7
20200227095503 30 0 0.0 0.0 0.00 0.02 0.00 82 1022.7
20200227095004 30 0 0.0 0.0 0.00 0.02 0.00 82 1022.6
20200227094508 30 0 0.0 1.0 0.00 0.02 0.00 81 1022.5
20200227094005 30 0 0.0 1.0 0.00 0.02 0.00 80 1022.5
20200227093503 30 0 0.0 1.0 0.00 0.02 0.00 79 1022.4
20200227093008 30 0 0.0 1.0 0.00 0.02 0.00 79 1022.6
20200227092503 31 0 0.0 1.0 0.00 0.02 0.00 78 1022.6
20200227092004 31 6 0.0 1.0 0.00 0.02 0.00 78 1022.6
20200227091508 31 358 1.0 2.0 0.00 0.02 0.00 77 1022.5
20200227091003 31 6 1.0 8.0 0.00 0.02 0.00 76 1022.4
20200227090503 31 7 1.0 8.0 0.00 0.02 0.00 76 1022.3
20200227090008 32 3 1.0 4.0 0.00 0.02 0.00 76 1022.3
20200227085507 32 358 1.0 4.0 0.00 0.02 0.00 75 1022.3
20200227085007 32 358 1.0 6.0 0.00 0.02 0.00 74 1022.4
20200227084512 32 358 1.0 6.0 0.00 0.02 0.00 74 1022.3
20200227084007 32 2 1.0 6.0 0.00 0.02 0.00 74 1022.3
20200227083507 32 2 1.0 6.0 0.00 0.02 0.00 74 1022.4
20200227083012 32 3 1.0 6.0 0.00 0.02 0.00 74 1022.4
20200227082507 33 6 2.0 6.0 0.00 0.02 0.00 73 1022.3
20200227082007 33 8 2.0 7.0 0.00 0.02 0.00 73 1022.3
20200227081512 33 5 2.0 7.0 0.00 0.02 0.00 73 1022.3
20200227081008 33 2 1.0 7.0 0.00 0.02 0.00 73 1022.4
20200227080507 33 3 1.0 7.0 0.00 0.02 0.00 73 1022.3
20200227080011 33 2 1.0 5.0 0.00 0.02 0.00 74 1022.3
20200227075507 33 5 1.0 6.0 0.00 0.02 0.00 74 1022.4
20200227075007 33 5 1.0 6.0 0.00 0.02 0.00 74 1022.4
20200227074511 33 4 1.0 4.0 0.00 0.02 0.00 74 1022.4
20200227074007 33 6 1.0 6.0 0.00 0.02 0.00 74 1022.5
20200227073507 33 8 2.0 6.0 0.00 0.02 0.00 74 1022.4
20200227073012 33 5 3.0 9.0 0.00 0.02 0.00 74 1022.3
20200227072507 33 6 4.0 13.0 0.00 0.02 0.00 73 1022.4
20200227072007 33 8 5.0 13.0 0.00 0.02 0.00 72 1022.4
20200227071512 33 6 4.0 12.0 0.00 0.02 0.00 71 1022.3
20200227071007 34 6 3.0 14.0 0.00 0.02 0.00 72 1022.2
20200227070507 34 4 3.0 14.0 0.00 0.02 0.00 72 1022.2
20200227070011 34 359 4.0 10.0 0.00 0.02 0.00 71 1022.1
20200227065507 34 6 4.0 17.0 0.00 0.02 0.00 70 1022.2
20200227065007 34 6 4.0 17.0 0.00 0.02 0.00 69 1022.2
20200227064512 34 8 5.0 18.0 0.00 0.02 0.00 69 1022.2
20200227064007 34 10 4.0 18.0 0.00 0.02 0.00 68 1022.2
20200227063507 34 9 3.0 13.0 0.00 0.02 0.00 67 1022.3
20200227063012 35 6 3.0 9.0 0.00 0.02 0.00 66 1022.3
20200227062506 35 2 3.0 9.0 0.00 0.02 0.00 66 1022.3
20200227062007 35 359 3.0 9.0 0.00 0.02 0.00 66 1022.2
20200227061511 35 358 3.0 9.0 0.00 0.02 0.00 65 1022.0
20200227061006 35 5 3.0 10.0 0.00 0.02 0.00 65 1022.1
20200227060506 35 6 2.0 10.0 0.00 0.02 0.00 65 1021.9
20200227060013 35 2 2.0 9.0 0.00 0.02 0.00 64 1021.8
20200227055506 35 2 1.0 8.0 0.00 0.02 0.02 64 1021.9
20200227055007 35 356 2.0 7.0 0.00 0.02 0.02 65 1021.8
20200227054511 35 355 2.0 11.0 0.00 0.02 0.02 65 1021.8
20200227054007 35 358 1.0 11.0 0.00 0.02 0.02 65 1021.9
20200227053506 35 359 2.0 7.0 0.00 0.02 0.02 66 1021.9
20200227053011 35 358 2.0 10.0 0.00 0.02 0.02 65 1021.9
20200227052506 35 5 2.0 10.0 0.00 0.02 0.02 67 1021.8
20200227052006 35 5 2.0 9.0 0.00 0.02 0.02 67 1021.8
20200227051511 35 352 2.0 9.0 0.00 0.02 0.02 67 1021.8
20200227051007 35 351 2.0 9.0 0.00 0.02 0.02 67 1021.7
20200227050506 35 357 2.0 8.0 0.00 0.02 0.02 68 1021.8
20200227050010 35 1 2.0 9.0 0.00 0.02 0.02 68 1021.8
20200227045506 35 359 2.0 9.0 0.00 0.02 0.02 70 1021.9
20200227045007 36 4 3.0 11.0 0.00 0.02 0.02 72 1021.9
20200227044511 36 6 3.0 11.0 0.00 0.02 0.02 72 1021.8
20200227044006 36 3 2.0 10.0 0.00 0.02 0.02 72 1021.8
20200227043506 36 356 2.0 6.0 0.00 0.02 0.02 73 1021.8
20200227043011 36 3 3.0 11.0 0.00 0.02 0.02 74 1021.7
20200227042507 36 2 3.0 11.0 0.00 0.02 0.02 73 1021.7
20200227042006 36 3 2.0 12.0 0.00 0.02 0.02 73 1021.6
20200227041510 36 2 2.0 12.0 0.00 0.02 0.02 73 1021.6
20200227041007 36 3 3.0 9.0 0.00 0.02 0.02 73 1021.6
20200227040506 36 8 3.0 11.0 0.00 0.02 0.02 73 1021.6
20200227040010 36 5 3.0 12.0 0.00 0.02 0.02 73 1021.5
20200227035506 36 4 3.0 12.0 0.00 0.02 0.02 73 1021.5
20200227035007 36 6 3.0 12.0 0.00 0.02 0.02 73 1021.3
20200227034511 36 5 3.0 13.0 0.00 0.02 0.02 74 1021.3
20200227034007 36 4 2.0 13.0 0.00 0.02 0.02 74 1021.2
20200227033506 36 356 2.0 8.0 0.00 0.02 0.02 75 1021.1
20200227033011 36 343 2.0 8.0 0.00 0.02 0.02 75 1021.0
20200227032506 36 351 2.0 7.0 0.00 0.02 0.02 75 1020.9
20200227032006 36 353 1.0 7.0 0.00 0.02 0.02 76 1020.9
20200227031510 37 350 1.0 8.0 0.00 0.02 0.02 76 1020.8
20200227031007 37 356 2.0 8.0 0.00 0.02 0.02 75 1020.8
20200227030506 37 357 2.0 6.0 0.00 0.02 0.02 74 1020.7
20200227030010 37 2 2.0 8.0 0.00 0.02 0.02 74 1020.8
20200227025507 37 3 2.0 8.0 0.00 0.02 0.02 74 1020.7
20200227025006 37 358 3.0 8.0 0.00 0.02 0.02 74 1020.5
20200227024510 37 359 2.0 8.0 0.00 0.02 0.02 74 1020.6
20200227024006 37 3 1.0 8.0 0.00 0.02 0.02 73 1020.5
20200227023506 37 4 1.0 7.0 0.00 0.02 0.02 73 1020.4
20200227023010 37 356 2.0 8.0 0.00 0.02 0.02 74 1020.3
20200227022506 37 3 2.0 8.0 0.00 0.02 0.02 74 1020.2
20200227022006 37 3 2.0 10.0 0.00 0.02 0.02 74 1020.0
20200227021510 37 357 1.0 10.0 0.00 0.02 0.02 73 1019.9
20200227021006 37 358 1.0 8.0 0.00 0.02 0.02 73 1020.0
20200227020506 37 4 2.0 7.0 0.00 0.02 0.02 74 1019.9
20200227020010 37 2 2.0 7.0 0.00 0.02 0.02 73 1019.8
20200227015506 37 2 2.0 8.0 0.00 0.02 0.02 73 1019.8
20200227015006 37 2 2.0 11.0 0.00 0.02 0.02 73 1019.8
20200227014510 37 4 2.0 11.0 0.00 0.02 0.02 73 1019.7
20200227014006 37 4 2.0 8.0 0.00 0.02 0.02 74 1019.4
20200227013506 37 1 2.0 6.0 0.00 0.02 0.02 76 1019.4
20200227013010 37 3 2.0 6.0 0.00 0.02 0.02 76 1019.4
20200227012506 37 4 2.0 7.0 0.00 0.02 0.02 77 1019.5
20200227012006 38 2 2.0 8.0 0.00 0.02 0.02 77 1019.4
20200227011510 38 3 2.0 9.0 0.00 0.02 0.02 76 1019.2
20200227011006 38 4 2.0 10.0 0.00 0.02 0.02 77 1019.2
20200227010506 38 3 2.0 10.0 0.00 0.02 0.02 76 1019.1
20200227010010 38 359 2.0 10.0 0.00 0.02 0.02 77 1019.1
20200227005505 38 357 2.0 12.0 0.00 0.02 0.02 78 1019.2
20200227005006 38 356 2.0 12.0 0.00 0.02 0.02 79 1019.2
20200227004511 38 1 2.0 7.0 0.00 0.02 0.02 79 1019.1
20200227004006 38 2 2.0 8.0 0.00 0.02 0.02 79 1019.1
20200227003505 38 357 1.0 8.0 0.00 0.02 0.02 78 1019.0